Location: Keppel Henge
(44.7900°N, 80.9447°W)
Time: 04:24:39
(UTC-04:00)

Tiangong 2 - Visible Passes

Search period start: 23 October 2018 00:00
Search period end: 02 November 2018 00:00
Orbit: 384 x 392 km, 42.8° (Epoch: 23 October)

Date Brightness Start Highest point End Pass type
(mag) Time Alt. Az. Time Alt. Az. Time Alt. Az.
27 Oct 3.9 20:23:10 10° SSW 20:23:22 11° SSW 20:23:22 11° SSW visible
28 Oct 3.4 19:25:54 10° S 19:27:19 12° SSE 19:27:54 12° SE visible
29 Oct 2.6 20:02:30 10° SW 20:04:39 26° S 20:04:39 26° S visible
30 Oct 2.9 19:04:38 10° SSW 19:07:03 20° SSE 19:09:02 12° ESE visible
30 Oct 3.8 20:40:24 10° WSW 20:41:19 17° WSW 20:41:19 17° WSW visible
31 Oct 1.7 19:42:08 10° WSW 19:45:08 40° SSE 19:45:38 37° SE visible
01 Nov 2.4 18:43:59 10° SW 18:46:49 30° SSE 18:49:38 10° E visible
01 Nov 2.7 20:20:15 10° WSW 20:22:12 33° WSW 20:22:12 33° WSW visible
